TimeCDT,TemperatureF,Dew PointF,Humidity,Sea Level PressureIn,VisibilityMPH,Wind Direction,Wind SpeedMPH,Gust SpeedMPH,PrecipitationIn,Events,Conditions,WindDirDegrees,DateUTC
12:53 AM,77.0,68.0,74,29.75,10.0,South,25.3,34.5,N/A,,Mostly Cloudy,170,2013-09-28 05:53:00
1:53 AM,75.9,68.0,76,29.75,10.0,South,23.0,32.2,N/A,,Mostly Cloudy,170,2013-09-28 06:53:00
2:53 AM,75.9,69.1,79,29.75,10.0,South,20.7,-,0.00,Rain,Light Rain,180,2013-09-28 07:53:00
3:00 AM,75.2,69.8,83,29.83,10.0,South,19.6,27.6,0.00,,Mostly Cloudy,170,2013-09-28 08:00:00
3:53 AM,75.9,69.1,79,29.75,10.0,South,20.7,-,0.00,,Overcast,180,2013-09-28 08:53:00
4:12 AM,75.2,69.8,83,29.83,10.0,South,20.7,-,N/A,,Overcast,170,2013-09-28 09:12:00
4:27 AM,69.8,64.4,83,29.86,10.0,NW,17.3,29.9,N/A,Thunderstorm,Overcast,310,2013-09-28 09:27:00
4:39 AM,66.2,64.4,94,29.86,4.0,NW,9.2,-,0.04,Rain-Thunderstorm,Light Rain,310,2013-09-28 09:39:00
4:42 AM,66.2,64.4,94,29.86,6.0,NW,10.4,-,0.06,Rain,Light Rain,320,2013-09-28 09:42:00
4:47 AM,66.2,64.4,94,29.87,2.5,WNW,9.2,-,0.17,Rain,Heavy Rain,300,2013-09-28 09:47:00
4:53 AM,66.9,64.9,93,29.80,1.8,NW,18.4,23.0,0.24,Rain,Heavy Rain,310,2013-09-28 09:53:00
5:00 AM,66.2,64.4,94,29.87,2.0,WNW,12.7,23.0,0.07,Rain-Thunderstorm,Heavy Rain,290,2013-09-28 10:00:00
5:27 AM,64.4,62.6,94,29.91,2.5,NNW,24.2,34.5,0.32,Rain-Thunderstorm,Heavy Rain,340,2013-09-28 10:27:00
5:34 AM,60.8,57.2,88,29.93,4.0,NNW,27.6,39.1,0.34,Rain-Thunderstorm,Rain,340,2013-09-28 10:34:00
5:48 AM,60.8,57.2,88,29.94,5.0,North,19.6,35.7,0.39,Rain,Rain,350,2013-09-28 10:48:00
5:53 AM,59.0,57.9,96,29.90,7.0,North,20.7,31.1,0.40,Rain,Rain,350,2013-09-28 10:53:00
6:06 AM,59.0,57.2,94,29.96,8.0,NNW,21.9,-,0.03,Rain,Rain,340,2013-09-28 11:06:00
6:26 AM,57.2,55.4,94,29.96,10.0,North,26.5,34.5,0.07,Rain,Light Rain,350,2013-09-28 11:26:00
6:53 AM,57.0,54.0,89,29.93,10.0,North,20.7,29.9,0.08,Rain,Light Rain,350,2013-09-28 11:53:00
7:53 AM,57.0,52.0,83,29.94,10.0,North,21.9,31.1,0.06,Rain,Light Rain,350,2013-09-28 12:53:00
8:53 AM,57.9,52.0,81,29.98,10.0,North,19.6,-,0.00,,Partly Cloudy,350,2013-09-28 13:53:00
9:53 AM,59.0,51.1,75,30.03,10.0,North,18.4,27.6,N/A,,Clear,350,2013-09-28 14:53:00
10:53 AM,63.0,51.1,65,30.05,10.0,North,20.7,24.2,N/A,,Clear,350,2013-09-28 15:53:00
11:53 AM,66.0,48.9,54,30.05,10.0,North,24.2,31.1,N/A,,Clear,10,2013-09-28 16:53:00
12:53 PM,68.0,48.0,49,30.05,10.0,North,19.6,-,N/A,,Clear,350,2013-09-28 17:53:00
1:53 PM,72.0,45.0,38,30.03,10.0,North,21.9,31.1,N/A,,Clear,360,2013-09-28 18:53:00
2:53 PM,73.0,43.0,34,30.02,10.0,North,21.9,28.8,N/A,,Clear,360,2013-09-28 19:53:00
3:53 PM,73.0,43.0,34,30.02,10.0,North,19.6,-,N/A,,Clear,360,2013-09-28 20:53:00
4:53 PM,73.9,43.0,33,30.02,10.0,North,13.8,-,N/A,,Clear,10,2013-09-28 21:53:00
5:53 PM,72.0,42.1,34,30.04,10.0,North,13.8,-,N/A,,Clear,360,2013-09-28 22:53:00
6:53 PM,69.1,45.0,42,30.05,10.0,North,12.7,-,N/A,,Clear,360,2013-09-28 23:53:00
7:53 PM,61.0,48.0,62,30.08,10.0,NNE,6.9,-,N/A,,Clear,20,2013-09-29 00:53:00
8:53 PM,59.0,48.9,69,30.10,10.0,North,5.8,-,N/A,,Clear,10,2013-09-29 01:53:00
9:53 PM,60.1,48.0,64,30.12,10.0,Calm,Calm,-,N/A,,Clear,0,2013-09-29 02:53:00
10:53 PM,55.9,52.0,87,30.14,10.0,Calm,Calm,-,N/A,,Clear,0,2013-09-29 03:53:00
11:53 PM,55.9,51.1,84,30.14,5.0,Calm,Calm,-,N/A,,Haze,0,2013-09-29 04:53:00